Index of /20260425/WXO-DD/model_rdps/10km/00/041
Name Last modified Size Description
Parent Directory -
20260425T00Z_MSC_RDPS_AbsoluteVorticity_IsbL-0250_RLatLon0.09_PT041H.grib2 2026-04-25 02:55 610K
20260425T00Z_MSC_RDPS_AbsoluteVorticity_IsbL-0500_RLatLon0.09_PT041H.grib2 2026-04-25 02:55 567K
20260425T00Z_MSC_RDPS_AbsoluteVorticity_IsbL-0700_RLatLon0.09_PT041H.grib2 2026-04-25 02:55 625K
20260425T00Z_MSC_RDPS_AbsoluteVorticity_IsbL-0850_RLatLon0.09_PT041H.grib2 2026-04-25 02:55 790K
20260425T00Z_MSC_RDPS_AirTemp_AGL-120m_RLatLon0.09_PT041H.grib2 2026-04-25 02:55 402K
20260425T00Z_MSC_RDPS_AirTemp_AGL-2m_RLatLon0.09_PT041H.grib2 2026-04-25 02:55 642K
20260425T00Z_MSC_RDPS_AirTemp_AGL-40m_RLatLon0.09_PT041H.grib2 2026-04-25 02:55 410K
20260425T00Z_MSC_RDPS_AirTemp_AGL-80m_RLatLon0.09_PT041H.grib2 2026-04-25 02:55 406K
20260425T00Z_MSC_RDPS_AirTemp_IsbL-0001_RLatLon0.09_PT041H.grib2 2026-04-25 02:55 323K
20260425T00Z_MSC_RDPS_AirTemp_IsbL-0005_RLatLon0.09_PT041H.grib2 2026-04-25 02:55 297K
20260425T00Z_MSC_RDPS_AirTemp_IsbL-0010_RLatLon0.09_PT041H.grib2 2026-04-25 02:55 309K
20260425T00Z_MSC_RDPS_AirTemp_IsbL-0020_RLatLon0.09_PT041H.grib2 2026-04-25 02:55 331K
20260425T00Z_MSC_RDPS_AirTemp_IsbL-0030_RLatLon0.09_PT041H.grib2 2026-04-25 02:55 350K
20260425T00Z_MSC_RDPS_AirTemp_IsbL-0050_RLatLon0.09_PT041H.grib2 2026-04-25 02:55 329K
20260425T00Z_MSC_RDPS_AirTemp_IsbL-0100_RLatLon0.09_PT041H.grib2 2026-04-25 02:55 421K
20260425T00Z_MSC_RDPS_AirTemp_IsbL-0150_RLatLon0.09_PT041H.grib2 2026-04-25 02:55 417K
20260425T00Z_MSC_RDPS_AirTemp_IsbL-0175_RLatLon0.09_PT041H.grib2 2026-04-25 02:55 409K
20260425T00Z_MSC_RDPS_AirTemp_IsbL-0200_RLatLon0.09_PT041H.grib2 2026-04-25 02:55 417K
20260425T00Z_MSC_RDPS_AirTemp_IsbL-0225_RLatLon0.09_PT041H.grib2 2026-04-25 02:55 418K
20260425T00Z_MSC_RDPS_AirTemp_IsbL-0250_RLatLon0.09_PT041H.grib2 2026-04-25 02:55 424K
20260425T00Z_MSC_RDPS_AirTemp_IsbL-0275_RLatLon0.09_PT041H.grib2 2026-04-25 02:55 405K
20260425T00Z_MSC_RDPS_AirTemp_IsbL-0300_RLatLon0.09_PT041H.grib2 2026-04-25 02:55 411K
20260425T00Z_MSC_RDPS_AirTemp_IsbL-0350_RLatLon0.09_PT041H.grib2 2026-04-25 02:55 422K
20260425T00Z_MSC_RDPS_AirTemp_IsbL-0400_RLatLon0.09_PT041H.grib2 2026-04-25 02:55 422K
20260425T00Z_MSC_RDPS_AirTemp_IsbL-0450_RLatLon0.09_PT041H.grib2 2026-04-25 02:55 429K
20260425T00Z_MSC_RDPS_AirTemp_IsbL-0500_RLatLon0.09_PT041H.grib2 2026-04-25 02:55 407K
20260425T00Z_MSC_RDPS_AirTemp_IsbL-0550_RLatLon0.09_PT041H.grib2 2026-04-25 02:55 426K
20260425T00Z_MSC_RDPS_AirTemp_IsbL-0600_RLatLon0.09_PT041H.grib2 2026-04-25 02:55 445K
20260425T00Z_MSC_RDPS_AirTemp_IsbL-0650_RLatLon0.09_PT041H.grib2 2026-04-25 02:55 459K
20260425T00Z_MSC_RDPS_AirTemp_IsbL-0700_RLatLon0.09_PT041H.grib2 2026-04-25 02:55 486K
20260425T00Z_MSC_RDPS_AirTemp_IsbL-0750_RLatLon0.09_PT041H.grib2 2026-04-25 02:55 416K
20260425T00Z_MSC_RDPS_AirTemp_IsbL-0800_RLatLon0.09_PT041H.grib2 2026-04-25 02:55 462K
20260425T00Z_MSC_RDPS_AirTemp_IsbL-0850_RLatLon0.09_PT041H.grib2 2026-04-25 02:55 513K
20260425T00Z_MSC_RDPS_AirTemp_IsbL-0875_RLatLon0.09_PT041H.grib2 2026-04-25 02:55 529K
20260425T00Z_MSC_RDPS_AirTemp_IsbL-0900_RLatLon0.09_PT041H.grib2 2026-04-25 02:55 534K
20260425T00Z_MSC_RDPS_AirTemp_IsbL-0925_RLatLon0.09_PT041H.grib2 2026-04-25 02:55 534K
20260425T00Z_MSC_RDPS_AirTemp_IsbL-0950_RLatLon0.09_PT041H.grib2 2026-04-25 02:55 535K
20260425T00Z_MSC_RDPS_AirTemp_IsbL-0970_RLatLon0.09_PT041H.grib2 2026-04-25 02:55 534K
20260425T00Z_MSC_RDPS_AirTemp_IsbL-0985_RLatLon0.09_PT041H.grib2 2026-04-25 02:55 538K
20260425T00Z_MSC_RDPS_AirTemp_IsbL-1000_RLatLon0.09_PT041H.grib2 2026-04-25 02:55 521K
20260425T00Z_MSC_RDPS_AirTemp_IsbL-1015_RLatLon0.09_PT041H.grib2 2026-04-25 02:55 516K
20260425T00Z_MSC_RDPS_Albedo_Sfc_RLatLon0.09_PT041H.grib2 2026-04-25 02:55 162K
20260425T00Z_MSC_RDPS_CAPE_Sfc_RLatLon0.09_PT041H.grib2 2026-04-25 02:55 1.8M
20260425T00Z_MSC_RDPS_CIN_Sfc_RLatLon0.09_PT041H.grib2 2026-04-25 02:55 1.1M
20260425T00Z_MSC_RDPS_CloudWater_EAtm_RLatLon0.09_PT041H.grib2 2026-04-25 02:55 218K
20260425T00Z_MSC_RDPS_ConvectivePrecip-Accum_Sfc_RLatLon0.09_PT041H.grib2 2026-04-25 02:55 1.0M
20260425T00Z_MSC_RDPS_DewPointDepression_AGL-2m_RLatLon0.09_PT041H.grib2 2026-04-25 02:55 423K
20260425T00Z_MSC_RDPS_DewPointDepression_IsbL-0001_RLatLon0.09_PT041H.grib2 2026-04-25 02:55 193
20260425T00Z_MSC_RDPS_DewPointDepression_IsbL-0005_RLatLon0.09_PT041H.grib2 2026-04-25 02:55 193
20260425T00Z_MSC_RDPS_DewPointDepression_IsbL-0010_RLatLon0.09_PT041H.grib2 2026-04-25 02:55 193
20260425T00Z_MSC_RDPS_DewPointDepression_IsbL-0020_RLatLon0.09_PT041H.grib2 2026-04-25 02:55 193
20260425T00Z_MSC_RDPS_DewPointDepression_IsbL-0030_RLatLon0.09_PT041H.grib2 2026-04-25 02:55 193
20260425T00Z_MSC_RDPS_DewPointDepression_IsbL-0050_RLatLon0.09_PT041H.grib2 2026-04-25 02:55 94K
20260425T00Z_MSC_RDPS_DewPointDepression_IsbL-0100_RLatLon0.09_PT041H.grib2 2026-04-25 02:55 124K
20260425T00Z_MSC_RDPS_DewPointDepression_IsbL-0150_RLatLon0.09_PT041H.grib2 2026-04-25 02:55 148K
20260425T00Z_MSC_RDPS_DewPointDepression_IsbL-0175_RLatLon0.09_PT041H.grib2 2026-04-25 02:55 185K
20260425T00Z_MSC_RDPS_DewPointDepression_IsbL-0200_RLatLon0.09_PT041H.grib2 2026-04-25 02:55 225K
20260425T00Z_MSC_RDPS_DewPointDepression_IsbL-0225_RLatLon0.09_PT041H.grib2 2026-04-25 02:55 259K
20260425T00Z_MSC_RDPS_DewPointDepression_IsbL-0250_RLatLon0.09_PT041H.grib2 2026-04-25 02:55 298K
20260425T00Z_MSC_RDPS_DewPointDepression_IsbL-0275_RLatLon0.09_PT041H.grib2 2026-04-25 02:55 309K
20260425T00Z_MSC_RDPS_DewPointDepression_IsbL-0300_RLatLon0.09_PT041H.grib2 2026-04-25 02:55 328K
20260425T00Z_MSC_RDPS_DewPointDepression_IsbL-0350_RLatLon0.09_PT041H.grib2 2026-04-25 02:55 336K
20260425T00Z_MSC_RDPS_DewPointDepression_IsbL-0400_RLatLon0.09_PT041H.grib2 2026-04-25 02:55 346K
20260425T00Z_MSC_RDPS_DewPointDepression_IsbL-0450_RLatLon0.09_PT041H.grib2 2026-04-25 02:55 355K
20260425T00Z_MSC_RDPS_DewPointDepression_IsbL-0500_RLatLon0.09_PT041H.grib2 2026-04-25 02:55 362K
20260425T00Z_MSC_RDPS_DewPointDepression_IsbL-0550_RLatLon0.09_PT041H.grib2 2026-04-25 02:55 376K
20260425T00Z_MSC_RDPS_DewPointDepression_IsbL-0600_RLatLon0.09_PT041H.grib2 2026-04-25 02:55 386K
20260425T00Z_MSC_RDPS_DewPointDepression_IsbL-0650_RLatLon0.09_PT041H.grib2 2026-04-25 02:55 389K
20260425T00Z_MSC_RDPS_DewPointDepression_IsbL-0700_RLatLon0.09_PT041H.grib2 2026-04-25 02:55 401K
20260425T00Z_MSC_RDPS_DewPointDepression_IsbL-0750_RLatLon0.09_PT041H.grib2 2026-04-25 02:55 426K
20260425T00Z_MSC_RDPS_DewPointDepression_IsbL-0800_RLatLon0.09_PT041H.grib2 2026-04-25 02:55 457K
20260425T00Z_MSC_RDPS_DewPointDepression_IsbL-0850_RLatLon0.09_PT041H.grib2 2026-04-25 02:55 485K
20260425T00Z_MSC_RDPS_DewPointDepression_IsbL-0875_RLatLon0.09_PT041H.grib2 2026-04-25 02:55 484K
20260425T00Z_MSC_RDPS_DewPointDepression_IsbL-0900_RLatLon0.09_PT041H.grib2 2026-04-25 02:55 472K
20260425T00Z_MSC_RDPS_DewPointDepression_IsbL-0925_RLatLon0.09_PT041H.grib2 2026-04-25 02:55 461K
20260425T00Z_MSC_RDPS_DewPointDepression_IsbL-0950_RLatLon0.09_PT041H.grib2 2026-04-25 02:55 453K
20260425T00Z_MSC_RDPS_DewPointDepression_IsbL-0970_RLatLon0.09_PT041H.grib2 2026-04-25 02:55 445K
20260425T00Z_MSC_RDPS_DewPointDepression_IsbL-0985_RLatLon0.09_PT041H.grib2 2026-04-25 02:55 441K
20260425T00Z_MSC_RDPS_DewPointDepression_IsbL-1000_RLatLon0.09_PT041H.grib2 2026-04-25 02:55 436K
20260425T00Z_MSC_RDPS_DewPointDepression_IsbL-1015_RLatLon0.09_PT041H.grib2 2026-04-25 02:55 429K
20260425T00Z_MSC_RDPS_DewPoint_AGL-2m_RLatLon0.09_PT041H.grib2 2026-04-25 02:55 406K
20260425T00Z_MSC_RDPS_DownwardLongwaveRadiationFlux-Accum_Sfc_RLatLon0.09_PT041H.grib2 2026-04-25 02:55 393K
20260425T00Z_MSC_RDPS_DownwardShortwaveRadiationFlux-Accum_NTAtm_RLatLon0.09_PT041H.grib2 2026-04-25 02:55 127K
20260425T00Z_MSC_RDPS_DownwardShortwaveRadiationFlux-Accum_Sfc_RLatLon0.09_PT041H.grib2 2026-04-25 02:55 567K
20260425T00Z_MSC_RDPS_FreezingRain-Accum1h_Sfc_RLatLon0.09_PT041H.grib2 2026-04-25 02:55 30K
20260425T00Z_MSC_RDPS_FreezingRain-Accum_Sfc_RLatLon0.09_PT041H.grib2 2026-04-25 02:55 163K
20260425T00Z_MSC_RDPS_GeopotentialHeight_IsbL-0001_RLatLon0.09_PT041H.grib2 2026-04-25 02:55 279K
20260425T00Z_MSC_RDPS_GeopotentialHeight_IsbL-0005_RLatLon0.09_PT041H.grib2 2026-04-25 02:55 314K
20260425T00Z_MSC_RDPS_GeopotentialHeight_IsbL-0010_RLatLon0.09_PT041H.grib2 2026-04-25 02:55 345K
20260425T00Z_MSC_RDPS_GeopotentialHeight_IsbL-0020_RLatLon0.09_PT041H.grib2 2026-04-25 02:55 312K
20260425T00Z_MSC_RDPS_GeopotentialHeight_IsbL-0030_RLatLon0.09_PT041H.grib2 2026-04-25 02:55 413K
20260425T00Z_MSC_RDPS_GeopotentialHeight_IsbL-0050_RLatLon0.09_PT041H.grib2 2026-04-25 02:55 315K
20260425T00Z_MSC_RDPS_GeopotentialHeight_IsbL-0100_RLatLon0.09_PT041H.grib2 2026-04-25 02:55 289K
20260425T00Z_MSC_RDPS_GeopotentialHeight_IsbL-0150_RLatLon0.09_PT041H.grib2 2026-04-25 02:55 229K
20260425T00Z_MSC_RDPS_GeopotentialHeight_IsbL-0175_RLatLon0.09_PT041H.grib2 2026-04-25 02:55 231K
20260425T00Z_MSC_RDPS_GeopotentialHeight_IsbL-0200_RLatLon0.09_PT041H.grib2 2026-04-25 02:55 265K
20260425T00Z_MSC_RDPS_GeopotentialHeight_IsbL-0225_RLatLon0.09_PT041H.grib2 2026-04-25 02:55 267K
20260425T00Z_MSC_RDPS_GeopotentialHeight_IsbL-0250_RLatLon0.09_PT041H.grib2 2026-04-25 02:55 268K
20260425T00Z_MSC_RDPS_GeopotentialHeight_IsbL-0275_RLatLon0.09_PT041H.grib2 2026-04-25 02:55 267K
20260425T00Z_MSC_RDPS_GeopotentialHeight_IsbL-0300_RLatLon0.09_PT041H.grib2 2026-04-25 02:55 236K
20260425T00Z_MSC_RDPS_GeopotentialHeight_IsbL-0350_RLatLon0.09_PT041H.grib2 2026-04-25 02:55 231K
20260425T00Z_MSC_RDPS_GeopotentialHeight_IsbL-0400_RLatLon0.09_PT041H.grib2 2026-04-25 02:55 228K
20260425T00Z_MSC_RDPS_GeopotentialHeight_IsbL-0450_RLatLon0.09_PT041H.grib2 2026-04-25 02:55 296K
20260425T00Z_MSC_RDPS_GeopotentialHeight_IsbL-0500_RLatLon0.09_PT041H.grib2 2026-04-25 02:55 292K
20260425T00Z_MSC_RDPS_GeopotentialHeight_IsbL-0550_RLatLon0.09_PT041H.grib2 2026-04-25 02:55 288K
20260425T00Z_MSC_RDPS_GeopotentialHeight_IsbL-0600_RLatLon0.09_PT041H.grib2 2026-04-25 02:55 283K
20260425T00Z_MSC_RDPS_GeopotentialHeight_IsbL-0650_RLatLon0.09_PT041H.grib2 2026-04-25 02:55 283K
20260425T00Z_MSC_RDPS_GeopotentialHeight_IsbL-0700_RLatLon0.09_PT041H.grib2 2026-04-25 02:55 281K
20260425T00Z_MSC_RDPS_GeopotentialHeight_IsbL-0750_RLatLon0.09_PT041H.grib2 2026-04-25 02:55 283K
20260425T00Z_MSC_RDPS_GeopotentialHeight_IsbL-0800_RLatLon0.09_PT041H.grib2 2026-04-25 02:55 263K
20260425T00Z_MSC_RDPS_GeopotentialHeight_IsbL-0850_RLatLon0.09_PT041H.grib2 2026-04-25 02:55 272K
20260425T00Z_MSC_RDPS_GeopotentialHeight_IsbL-0875_RLatLon0.09_PT041H.grib2 2026-04-25 02:55 275K
20260425T00Z_MSC_RDPS_GeopotentialHeight_IsbL-0900_RLatLon0.09_PT041H.grib2 2026-04-25 02:55 278K
20260425T00Z_MSC_RDPS_GeopotentialHeight_IsbL-0925_RLatLon0.09_PT041H.grib2 2026-04-25 02:55 281K
20260425T00Z_MSC_RDPS_GeopotentialHeight_IsbL-0950_RLatLon0.09_PT041H.grib2 2026-04-25 02:55 284K
20260425T00Z_MSC_RDPS_GeopotentialHeight_IsbL-0970_RLatLon0.09_PT041H.grib2 2026-04-25 02:55 290K
20260425T00Z_MSC_RDPS_GeopotentialHeight_IsbL-0985_RLatLon0.09_PT041H.grib2 2026-04-25 02:55 323K
20260425T00Z_MSC_RDPS_GeopotentialHeight_IsbL-1000_RLatLon0.09_PT041H.grib2 2026-04-25 02:55 333K
20260425T00Z_MSC_RDPS_GeopotentialHeight_IsbL-1015_RLatLon0.09_PT041H.grib2 2026-04-25 02:55 345K
20260425T00Z_MSC_RDPS_Humidex_Sfc_RLatLon0.09_PT041H.grib2 2026-04-25 02:55 2.4M
20260425T00Z_MSC_RDPS_IcePellets-Accum1h_Sfc_RLatLon0.09_PT041H.grib2 2026-04-25 02:55 15K
20260425T00Z_MSC_RDPS_IcePellets-Accum_Sfc_RLatLon0.09_PT041H.grib2 2026-04-25 02:55 60K
20260425T00Z_MSC_RDPS_KIndex_Sfc_RLatLon0.09_PT041H.grib2 2026-04-25 02:55 2.5M
20260425T00Z_MSC_RDPS_LatentHeatNetFlux_Sfc_RLatLon0.09_PT041H.grib2 2026-04-25 02:55 307K
20260425T00Z_MSC_RDPS_LiftedIndex-MU-VT_IsbL-0500_RLatLon0.09_PT041H.grib2 2026-04-25 02:55 2.4M
20260425T00Z_MSC_RDPS_NetLongwaveRadiationFlux-Accum_Sfc_RLatLon0.09_PT041H.grib2 2026-04-25 02:55 525K
20260425T00Z_MSC_RDPS_NetShortwaveRadiationFlux-Accum_Sfc_RLatLon0.09_PT041H.grib2 2026-04-25 02:55 569K
20260425T00Z_MSC_RDPS_PlanetaryBoundaryLayerHeight_Sfc_RLatLon0.09_PT041H.grib2 2026-04-25 02:55 1.0M
20260425T00Z_MSC_RDPS_Precip-Accum1h_Sfc_RLatLon0.09_PT041H.grib2 2026-04-25 02:55 1.3M
20260425T00Z_MSC_RDPS_Precip-Accum_Sfc_RLatLon0.09_PT041H.grib2 2026-04-25 02:55 2.0M
20260425T00Z_MSC_RDPS_PrecipRate_Sfc_RLatLon0.09_PT041H.grib2 2026-04-25 02:55 137K
20260425T00Z_MSC_RDPS_PrecipType-Instant_Sfc_RLatLon0.09_PT041H.grib2 2026-04-25 02:55 600K
20260425T00Z_MSC_RDPS_Pressure-Trend3h_Sfc_RLatLon0.09_PT041H.grib2 2026-04-25 02:55 1.2M
20260425T00Z_MSC_RDPS_Pressure_MSL_RLatLon0.09_PT041H.grib2 2026-04-25 02:55 243K
20260425T00Z_MSC_RDPS_Pressure_PVU-1.5_RLatLon0.09_PT041H.grib2 2026-04-25 02:55 2.3M
20260425T00Z_MSC_RDPS_Pressure_PVU-1_RLatLon0.09_PT041H.grib2 2026-04-25 02:55 2.4M
20260425T00Z_MSC_RDPS_Pressure_PVU-2_RLatLon0.09_PT041H.grib2 2026-04-25 02:55 2.4M
20260425T00Z_MSC_RDPS_Pressure_Sfc_RLatLon0.09_PT041H.grib2 2026-04-25 02:55 500K
20260425T00Z_MSC_RDPS_RadiativeTemp_Sfc_RLatLon0.09_PT041H.grib2 2026-04-25 02:55 330K
20260425T00Z_MSC_RDPS_Rain-Accum1h_Sfc_RLatLon0.09_PT041H.grib2 2026-04-25 02:55 533K
20260425T00Z_MSC_RDPS_Rain-Accum_Sfc_RLatLon0.09_PT041H.grib2 2026-04-25 02:55 1.5M
20260425T00Z_MSC_RDPS_RelativeHumidity_AGL-2m_RLatLon0.09_PT041H.grib2 2026-04-25 02:55 1.0M
20260425T00Z_MSC_RDPS_RelativeHumidity_IsbL-0010_RLatLon0.09_PT041H.grib2 2026-04-25 02:55 633K
20260425T00Z_MSC_RDPS_RelativeHumidity_IsbL-0020_RLatLon0.09_PT041H.grib2 2026-04-25 02:55 662K
20260425T00Z_MSC_RDPS_RelativeHumidity_IsbL-0030_RLatLon0.09_PT041H.grib2 2026-04-25 02:55 550K
20260425T00Z_MSC_RDPS_RelativeHumidity_IsbL-0050_RLatLon0.09_PT041H.grib2 2026-04-25 02:55 333K
20260425T00Z_MSC_RDPS_RelativeHumidity_IsbL-0100_RLatLon0.09_PT041H.grib2 2026-04-25 02:55 268K
20260425T00Z_MSC_RDPS_RelativeHumidity_IsbL-0150_RLatLon0.09_PT041H.grib2 2026-04-25 02:55 401K
20260425T00Z_MSC_RDPS_RelativeHumidity_IsbL-0175_RLatLon0.09_PT041H.grib2 2026-04-25 02:55 474K
20260425T00Z_MSC_RDPS_RelativeHumidity_IsbL-0200_RLatLon0.09_PT041H.grib2 2026-04-25 02:55 561K
20260425T00Z_MSC_RDPS_RelativeHumidity_IsbL-0225_RLatLon0.09_PT041H.grib2 2026-04-25 02:55 630K
20260425T00Z_MSC_RDPS_RelativeHumidity_IsbL-0250_RLatLon0.09_PT041H.grib2 2026-04-25 02:55 700K
20260425T00Z_MSC_RDPS_RelativeHumidity_IsbL-0275_RLatLon0.09_PT041H.grib2 2026-04-25 02:55 728K
20260425T00Z_MSC_RDPS_RelativeHumidity_IsbL-0300_RLatLon0.09_PT041H.grib2 2026-04-25 02:55 772K
20260425T00Z_MSC_RDPS_RelativeHumidity_IsbL-0350_RLatLon0.09_PT041H.grib2 2026-04-25 02:55 795K
20260425T00Z_MSC_RDPS_RelativeHumidity_IsbL-0400_RLatLon0.09_PT041H.grib2 2026-04-25 02:55 807K
20260425T00Z_MSC_RDPS_RelativeHumidity_IsbL-0450_RLatLon0.09_PT041H.grib2 2026-04-25 02:55 816K
20260425T00Z_MSC_RDPS_RelativeHumidity_IsbL-0500_RLatLon0.09_PT041H.grib2 2026-04-25 02:55 824K
20260425T00Z_MSC_RDPS_RelativeHumidity_IsbL-0550_RLatLon0.09_PT041H.grib2 2026-04-25 02:55 846K
20260425T00Z_MSC_RDPS_RelativeHumidity_IsbL-0600_RLatLon0.09_PT041H.grib2 2026-04-25 02:55 866K
20260425T00Z_MSC_RDPS_RelativeHumidity_IsbL-0650_RLatLon0.09_PT041H.grib2 2026-04-25 02:55 878K
20260425T00Z_MSC_RDPS_RelativeHumidity_IsbL-0700_RLatLon0.09_PT041H.grib2 2026-04-25 02:55 909K
20260425T00Z_MSC_RDPS_RelativeHumidity_IsbL-0750_RLatLon0.09_PT041H.grib2 2026-04-25 02:55 954K
20260425T00Z_MSC_RDPS_RelativeHumidity_IsbL-0800_RLatLon0.09_PT041H.grib2 2026-04-25 02:55 1.0M
20260425T00Z_MSC_RDPS_RelativeHumidity_IsbL-0850_RLatLon0.09_PT041H.grib2 2026-04-25 02:55 1.1M
20260425T00Z_MSC_RDPS_RelativeHumidity_IsbL-0875_RLatLon0.09_PT041H.grib2 2026-04-25 02:55 1.1M
20260425T00Z_MSC_RDPS_RelativeHumidity_IsbL-0900_RLatLon0.09_PT041H.grib2 2026-04-25 02:55 1.1M
20260425T00Z_MSC_RDPS_RelativeHumidity_IsbL-0925_RLatLon0.09_PT041H.grib2 2026-04-25 02:55 1.1M
20260425T00Z_MSC_RDPS_RelativeHumidity_IsbL-0950_RLatLon0.09_PT041H.grib2 2026-04-25 02:55 1.1M
20260425T00Z_MSC_RDPS_RelativeHumidity_IsbL-0970_RLatLon0.09_PT041H.grib2 2026-04-25 02:55 1.1M
20260425T00Z_MSC_RDPS_RelativeHumidity_IsbL-0985_RLatLon0.09_PT041H.grib2 2026-04-25 02:55 1.1M
20260425T00Z_MSC_RDPS_RelativeHumidity_IsbL-1000_RLatLon0.09_PT041H.grib2 2026-04-25 02:55 1.0M
20260425T00Z_MSC_RDPS_RelativeHumidity_IsbL-1015_RLatLon0.09_PT041H.grib2 2026-04-25 02:55 1.0M
20260425T00Z_MSC_RDPS_Runoff-Accum_Sfc_RLatLon0.09_PT041H.grib2 2026-04-25 02:55 59K
20260425T00Z_MSC_RDPS_SWEATIndex_Sfc_RLatLon0.09_PT041H.grib2 2026-04-25 02:55 2.5M
20260425T00Z_MSC_RDPS_SeeingIndex_EAtm_RLatLon0.09_PT041H.grib2 2026-04-25 02:55 1.0M
20260425T00Z_MSC_RDPS_SensibleHeatNetFlux_Sfc_RLatLon0.09_PT041H.grib2 2026-04-25 02:55 372K
20260425T00Z_MSC_RDPS_ShowalterIndex_IsbL-0500_RLatLon0.09_PT041H.grib2 2026-04-25 02:55 2.6M
20260425T00Z_MSC_RDPS_SkyTransparencyIndex_EAtm_RLatLon0.09_PT041H.grib2 2026-04-25 02:55 736K
20260425T00Z_MSC_RDPS_Snow-Accum1h_Sfc_RLatLon0.09_PT041H.grib2 2026-04-25 02:55 538K
20260425T00Z_MSC_RDPS_Snow-Accum_Sfc_RLatLon0.09_PT041H.grib2 2026-04-25 02:55 883K
20260425T00Z_MSC_RDPS_SnowDensity_Sfc_RLatLon0.09_PT041H.grib2 2026-04-25 02:55 184K
20260425T00Z_MSC_RDPS_SnowDepth_Sfc_RLatLon0.09_PT041H.grib2 2026-04-25 02:55 738K
20260425T00Z_MSC_RDPS_SoilTemp_DBS-0to10cm_RLatLon0.09_PT041H.grib2 2026-04-25 02:55 231K
20260425T00Z_MSC_RDPS_SoilTemp_Sfc_RLatLon0.09_PT041H.grib2 2026-04-25 02:55 287K
20260425T00Z_MSC_RDPS_SoilVolumetricIceContent_Sfc_RLatLon0.09_PT041H.grib2 2026-04-25 02:55 169K
20260425T00Z_MSC_RDPS_SoilVolumetricWaterContent_DBS-0to10cm_RLatLon0.09_PT041H.grib2 2026-04-25 02:55 256K
20260425T00Z_MSC_RDPS_SoilVolumetricWaterContent_DBS-0to1cm_RLatLon0.09_PT041H.grib2 2026-04-25 02:55 342K
20260425T00Z_MSC_RDPS_SpecificHumidity_AGL-120m_RLatLon0.09_PT041H.grib2 2026-04-25 02:55 496K
20260425T00Z_MSC_RDPS_SpecificHumidity_AGL-2m_RLatLon0.09_PT041H.grib2 2026-04-25 02:55 667K
20260425T00Z_MSC_RDPS_SpecificHumidity_AGL-40m_RLatLon0.09_PT041H.grib2 2026-04-25 02:55 500K
20260425T00Z_MSC_RDPS_SpecificHumidity_AGL-80m_RLatLon0.09_PT041H.grib2 2026-04-25 02:55 498K
20260425T00Z_MSC_RDPS_SpecificHumidity_IsbL-0001_RLatLon0.09_PT041H.grib2 2026-04-25 02:55 351K
20260425T00Z_MSC_RDPS_SpecificHumidity_IsbL-0005_RLatLon0.09_PT041H.grib2 2026-04-25 02:55 354K
20260425T00Z_MSC_RDPS_SpecificHumidity_IsbL-0010_RLatLon0.09_PT041H.grib2 2026-04-25 02:55 398K
20260425T00Z_MSC_RDPS_SpecificHumidity_IsbL-0020_RLatLon0.09_PT041H.grib2 2026-04-25 02:55 390K
20260425T00Z_MSC_RDPS_SpecificHumidity_IsbL-0030_RLatLon0.09_PT041H.grib2 2026-04-25 02:55 481K
20260425T00Z_MSC_RDPS_SpecificHumidity_IsbL-0050_RLatLon0.09_PT041H.grib2 2026-04-25 02:55 479K
20260425T00Z_MSC_RDPS_SpecificHumidity_IsbL-0100_RLatLon0.09_PT041H.grib2 2026-04-25 02:55 420K
20260425T00Z_MSC_RDPS_SpecificHumidity_IsbL-0150_RLatLon0.09_PT041H.grib2 2026-04-25 02:55 478K
20260425T00Z_MSC_RDPS_SpecificHumidity_IsbL-0175_RLatLon0.09_PT041H.grib2 2026-04-25 02:55 540K
20260425T00Z_MSC_RDPS_SpecificHumidity_IsbL-0200_RLatLon0.09_PT041H.grib2 2026-04-25 02:55 560K
20260425T00Z_MSC_RDPS_SpecificHumidity_IsbL-0225_RLatLon0.09_PT041H.grib2 2026-04-25 02:55 562K
20260425T00Z_MSC_RDPS_SpecificHumidity_IsbL-0250_RLatLon0.09_PT041H.grib2 2026-04-25 02:55 561K
20260425T00Z_MSC_RDPS_SpecificHumidity_IsbL-0275_RLatLon0.09_PT041H.grib2 2026-04-25 02:55 475K
20260425T00Z_MSC_RDPS_SpecificHumidity_IsbL-0300_RLatLon0.09_PT041H.grib2 2026-04-25 02:55 548K
20260425T00Z_MSC_RDPS_SpecificHumidity_IsbL-0350_RLatLon0.09_PT041H.grib2 2026-04-25 02:55 540K
20260425T00Z_MSC_RDPS_SpecificHumidity_IsbL-0400_RLatLon0.09_PT041H.grib2 2026-04-25 02:55 521K
20260425T00Z_MSC_RDPS_SpecificHumidity_IsbL-0450_RLatLon0.09_PT041H.grib2 2026-04-25 02:55 574K
20260425T00Z_MSC_RDPS_SpecificHumidity_IsbL-0500_RLatLon0.09_PT041H.grib2 2026-04-25 02:55 513K
20260425T00Z_MSC_RDPS_SpecificHumidity_IsbL-0550_RLatLon0.09_PT041H.grib2 2026-04-25 02:55 571K
20260425T00Z_MSC_RDPS_SpecificHumidity_IsbL-0600_RLatLon0.09_PT041H.grib2 2026-04-25 02:55 638K
20260425T00Z_MSC_RDPS_SpecificHumidity_IsbL-0650_RLatLon0.09_PT041H.grib2 2026-04-25 02:55 553K
20260425T00Z_MSC_RDPS_SpecificHumidity_IsbL-0700_RLatLon0.09_PT041H.grib2 2026-04-25 02:55 597K
20260425T00Z_MSC_RDPS_SpecificHumidity_IsbL-0750_RLatLon0.09_PT041H.grib2 2026-04-25 02:55 656K
20260425T00Z_MSC_RDPS_SpecificHumidity_IsbL-0800_RLatLon0.09_PT041H.grib2 2026-04-25 02:55 740K
20260425T00Z_MSC_RDPS_SpecificHumidity_IsbL-0850_RLatLon0.09_PT041H.grib2 2026-04-25 02:55 814K
20260425T00Z_MSC_RDPS_SpecificHumidity_IsbL-0875_RLatLon0.09_PT041H.grib2 2026-04-25 02:55 837K
20260425T00Z_MSC_RDPS_SpecificHumidity_IsbL-0900_RLatLon0.09_PT041H.grib2 2026-04-25 02:55 845K
20260425T00Z_MSC_RDPS_SpecificHumidity_IsbL-0925_RLatLon0.09_PT041H.grib2 2026-04-25 02:55 845K
20260425T00Z_MSC_RDPS_SpecificHumidity_IsbL-0950_RLatLon0.09_PT041H.grib2 2026-04-25 02:55 703K
20260425T00Z_MSC_RDPS_SpecificHumidity_IsbL-0970_RLatLon0.09_PT041H.grib2 2026-04-25 02:55 695K
20260425T00Z_MSC_RDPS_SpecificHumidity_IsbL-0985_RLatLon0.09_PT041H.grib2 2026-04-25 02:55 690K
20260425T00Z_MSC_RDPS_SpecificHumidity_IsbL-1000_RLatLon0.09_PT041H.grib2 2026-04-25 02:55 684K
20260425T00Z_MSC_RDPS_SpecificHumidity_IsbL-1015_RLatLon0.09_PT041H.grib2 2026-04-25 02:55 676K
20260425T00Z_MSC_RDPS_SpecificHumidity_Sfc_RLatLon0.09_PT041H.grib2 2026-04-25 02:55 339K
20260425T00Z_MSC_RDPS_StormRelativeHelicity_EtaL-10000_RLatLon0.09_PT041H.grib2 2026-04-25 02:55 1.1M
20260425T00Z_MSC_RDPS_StormSeverityIndex_EtaL-10000_RLatLon0.09_PT041H.grib2 2026-04-25 02:55 1.1M
20260425T00Z_MSC_RDPS_Thickness_IsbL-0850to0700_RLatLon0.09_PT041H.grib2 2026-04-25 02:55 178K
20260425T00Z_MSC_RDPS_Thickness_IsbL-1000to0500_RLatLon0.09_PT041H.grib2 2026-04-25 02:55 206K
20260425T00Z_MSC_RDPS_Thickness_IsbL-1000to0850_RLatLon0.09_PT041H.grib2 2026-04-25 02:55 191K
20260425T00Z_MSC_RDPS_TotalCloudCover_Sfc_RLatLon0.09_PT041H.grib2 2026-04-25 02:55 682K
20260425T00Z_MSC_RDPS_TotalTotalsIndex_Sfc_RLatLon0.09_PT041H.grib2 2026-04-25 02:55 2.4M
20260425T00Z_MSC_RDPS_UVIndex-ClearSky_Sfc_RLatLon0.09_PT041H.grib2 2026-04-25 02:55 221K
20260425T00Z_MSC_RDPS_UVIndex_Sfc_RLatLon0.09_PT041H.grib2 2026-04-25 02:55 516K
20260425T00Z_MSC_RDPS_UpwardLongwaveRadiationFlux_NTAtm_RLatLon0.09_PT041H.grib2 2026-04-25 02:55 499K
20260425T00Z_MSC_RDPS_UpwardShortwaveRadiationFlux_NTAtm_RLatLon0.09_PT041H.grib2 2026-04-25 02:55 552K
20260425T00Z_MSC_RDPS_VerticalVelocity_IsbL-0250_RLatLon0.09_PT041H.grib2 2026-04-25 02:55 574K
20260425T00Z_MSC_RDPS_VerticalVelocity_IsbL-0500_RLatLon0.09_PT041H.grib2 2026-04-25 02:55 539K
20260425T00Z_MSC_RDPS_VerticalVelocity_IsbL-0700_RLatLon0.09_PT041H.grib2 2026-04-25 02:55 596K
20260425T00Z_MSC_RDPS_VerticalVelocity_IsbL-0850_RLatLon0.09_PT041H.grib2 2026-04-25 02:55 706K
20260425T00Z_MSC_RDPS_VerticalWindShear_EtaL-6500_RLatLon0.09_PT041H.grib2 2026-04-25 02:55 1.2M
20260425T00Z_MSC_RDPS_WindChill_Sfc_RLatLon0.09_PT041H.grib2 2026-04-25 02:55 1.1M
20260425T00Z_MSC_RDPS_WindDir_AGL-10m_RLatLon0.09_PT041H.grib2 2026-04-25 02:55 1.0M
20260425T00Z_MSC_RDPS_WindDir_AGL-120m_RLatLon0.09_PT041H.grib2 2026-04-25 02:55 636K
20260425T00Z_MSC_RDPS_WindDir_AGL-40m_RLatLon0.09_PT041H.grib2 2026-04-25 02:55 657K
20260425T00Z_MSC_RDPS_WindDir_AGL-80m_RLatLon0.09_PT041H.grib2 2026-04-25 02:55 645K
20260425T00Z_MSC_RDPS_WindDir_IsbL-0001_RLatLon0.09_PT041H.grib2 2026-04-25 02:55 290K
20260425T00Z_MSC_RDPS_WindDir_IsbL-0005_RLatLon0.09_PT041H.grib2 2026-04-25 02:55 366K
20260425T00Z_MSC_RDPS_WindDir_IsbL-0010_RLatLon0.09_PT041H.grib2 2026-04-25 02:55 394K
20260425T00Z_MSC_RDPS_WindDir_IsbL-0020_RLatLon0.09_PT041H.grib2 2026-04-25 02:55 409K
20260425T00Z_MSC_RDPS_WindDir_IsbL-0030_RLatLon0.09_PT041H.grib2 2026-04-25 02:55 433K
20260425T00Z_MSC_RDPS_WindDir_IsbL-0050_RLatLon0.09_PT041H.grib2 2026-04-25 02:55 453K
20260425T00Z_MSC_RDPS_WindDir_IsbL-0100_RLatLon0.09_PT041H.grib2 2026-04-25 02:55 422K
20260425T00Z_MSC_RDPS_WindDir_IsbL-0150_RLatLon0.09_PT041H.grib2 2026-04-25 02:55 420K
20260425T00Z_MSC_RDPS_WindDir_IsbL-0175_RLatLon0.09_PT041H.grib2 2026-04-25 02:55 438K
20260425T00Z_MSC_RDPS_WindDir_IsbL-0200_RLatLon0.09_PT041H.grib2 2026-04-25 02:55 446K
20260425T00Z_MSC_RDPS_WindDir_IsbL-0225_RLatLon0.09_PT041H.grib2 2026-04-25 02:55 446K
20260425T00Z_MSC_RDPS_WindDir_IsbL-0250_RLatLon0.09_PT041H.grib2 2026-04-25 02:55 450K
20260425T00Z_MSC_RDPS_WindDir_IsbL-0275_RLatLon0.09_PT041H.grib2 2026-04-25 02:55 479K
20260425T00Z_MSC_RDPS_WindDir_IsbL-0300_RLatLon0.09_PT041H.grib2 2026-04-25 02:55 477K
20260425T00Z_MSC_RDPS_WindDir_IsbL-0350_RLatLon0.09_PT041H.grib2 2026-04-25 02:55 498K
20260425T00Z_MSC_RDPS_WindDir_IsbL-0400_RLatLon0.09_PT041H.grib2 2026-04-25 02:55 511K
20260425T00Z_MSC_RDPS_WindDir_IsbL-0450_RLatLon0.09_PT041H.grib2 2026-04-25 02:55 519K
20260425T00Z_MSC_RDPS_WindDir_IsbL-0500_RLatLon0.09_PT041H.grib2 2026-04-25 02:55 535K
20260425T00Z_MSC_RDPS_WindDir_IsbL-0550_RLatLon0.09_PT041H.grib2 2026-04-25 02:55 556K
20260425T00Z_MSC_RDPS_WindDir_IsbL-0600_RLatLon0.09_PT041H.grib2 2026-04-25 02:55 587K
20260425T00Z_MSC_RDPS_WindDir_IsbL-0650_RLatLon0.09_PT041H.grib2 2026-04-25 02:55 634K
20260425T00Z_MSC_RDPS_WindDir_IsbL-0700_RLatLon0.09_PT041H.grib2 2026-04-25 02:55 677K
20260425T00Z_MSC_RDPS_WindDir_IsbL-0750_RLatLon0.09_PT041H.grib2 2026-04-25 02:55 735K
20260425T00Z_MSC_RDPS_WindDir_IsbL-0800_RLatLon0.09_PT041H.grib2 2026-04-25 02:55 811K
20260425T00Z_MSC_RDPS_WindDir_IsbL-0850_RLatLon0.09_PT041H.grib2 2026-04-25 02:55 893K
20260425T00Z_MSC_RDPS_WindDir_IsbL-0875_RLatLon0.09_PT041H.grib2 2026-04-25 02:55 919K
20260425T00Z_MSC_RDPS_WindDir_IsbL-0900_RLatLon0.09_PT041H.grib2 2026-04-25 02:55 929K
20260425T00Z_MSC_RDPS_WindDir_IsbL-0925_RLatLon0.09_PT041H.grib2 2026-04-25 02:55 934K
20260425T00Z_MSC_RDPS_WindDir_IsbL-0950_RLatLon0.09_PT041H.grib2 2026-04-25 02:55 933K
20260425T00Z_MSC_RDPS_WindDir_IsbL-0970_RLatLon0.09_PT041H.grib2 2026-04-25 02:55 938K
20260425T00Z_MSC_RDPS_WindDir_IsbL-0985_RLatLon0.09_PT041H.grib2 2026-04-25 02:55 952K
20260425T00Z_MSC_RDPS_WindDir_IsbL-1000_RLatLon0.09_PT041H.grib2 2026-04-25 02:55 970K
20260425T00Z_MSC_RDPS_WindDir_IsbL-1015_RLatLon0.09_PT041H.grib2 2026-04-25 02:55 1.0M
20260425T00Z_MSC_RDPS_WindGust-Max_AGL-10m_RLatLon0.09_PT041H.grib2 2026-04-25 02:55 1.0M
20260425T00Z_MSC_RDPS_WindGust-Min_AGL-10m_RLatLon0.09_PT041H.grib2 2026-04-25 02:55 1.0M
20260425T00Z_MSC_RDPS_WindGust_AGL-10m_RLatLon0.09_PT041H.grib2 2026-04-25 02:55 1.0M
20260425T00Z_MSC_RDPS_WindSpeed_AGL-10m_RLatLon0.09_PT041H.grib2 2026-04-25 02:55 856K
20260425T00Z_MSC_RDPS_WindSpeed_AGL-120m_RLatLon0.09_PT041H.grib2 2026-04-25 02:55 553K
20260425T00Z_MSC_RDPS_WindSpeed_AGL-40m_RLatLon0.09_PT041H.grib2 2026-04-25 02:55 548K
20260425T00Z_MSC_RDPS_WindSpeed_AGL-80m_RLatLon0.09_PT041H.grib2 2026-04-25 02:55 545K
20260425T00Z_MSC_RDPS_WindSpeed_IsbL-0001_RLatLon0.09_PT041H.grib2 2026-04-25 02:55 299K
20260425T00Z_MSC_RDPS_WindSpeed_IsbL-0005_RLatLon0.09_PT041H.grib2 2026-04-25 02:55 300K
20260425T00Z_MSC_RDPS_WindSpeed_IsbL-0010_RLatLon0.09_PT041H.grib2 2026-04-25 02:55 317K
20260425T00Z_MSC_RDPS_WindSpeed_IsbL-0020_RLatLon0.09_PT041H.grib2 2026-04-25 02:55 337K
20260425T00Z_MSC_RDPS_WindSpeed_IsbL-0030_RLatLon0.09_PT041H.grib2 2026-04-25 02:55 335K
20260425T00Z_MSC_RDPS_WindSpeed_IsbL-0050_RLatLon0.09_PT041H.grib2 2026-04-25 02:55 478K
20260425T00Z_MSC_RDPS_WindSpeed_IsbL-0100_RLatLon0.09_PT041H.grib2 2026-04-25 02:55 472K
20260425T00Z_MSC_RDPS_WindSpeed_IsbL-0150_RLatLon0.09_PT041H.grib2 2026-04-25 02:55 374K
20260425T00Z_MSC_RDPS_WindSpeed_IsbL-0175_RLatLon0.09_PT041H.grib2 2026-04-25 02:55 401K
20260425T00Z_MSC_RDPS_WindSpeed_IsbL-0200_RLatLon0.09_PT041H.grib2 2026-04-25 02:55 439K
20260425T00Z_MSC_RDPS_WindSpeed_IsbL-0225_RLatLon0.09_PT041H.grib2 2026-04-25 02:55 447K
20260425T00Z_MSC_RDPS_WindSpeed_IsbL-0250_RLatLon0.09_PT041H.grib2 2026-04-25 02:55 450K
20260425T00Z_MSC_RDPS_WindSpeed_IsbL-0275_RLatLon0.09_PT041H.grib2 2026-04-25 02:55 470K
20260425T00Z_MSC_RDPS_WindSpeed_IsbL-0300_RLatLon0.09_PT041H.grib2 2026-04-25 02:55 468K
20260425T00Z_MSC_RDPS_WindSpeed_IsbL-0350_RLatLon0.09_PT041H.grib2 2026-04-25 02:55 478K
20260425T00Z_MSC_RDPS_WindSpeed_IsbL-0400_RLatLon0.09_PT041H.grib2 2026-04-25 02:55 460K
20260425T00Z_MSC_RDPS_WindSpeed_IsbL-0450_RLatLon0.09_PT041H.grib2 2026-04-25 02:55 459K
20260425T00Z_MSC_RDPS_WindSpeed_IsbL-0500_RLatLon0.09_PT041H.grib2 2026-04-25 02:55 578K
20260425T00Z_MSC_RDPS_WindSpeed_IsbL-0550_RLatLon0.09_PT041H.grib2 2026-04-25 02:55 581K
20260425T00Z_MSC_RDPS_WindSpeed_IsbL-0600_RLatLon0.09_PT041H.grib2 2026-04-25 02:55 594K
20260425T00Z_MSC_RDPS_WindSpeed_IsbL-0650_RLatLon0.09_PT041H.grib2 2026-04-25 02:55 616K
20260425T00Z_MSC_RDPS_WindSpeed_IsbL-0700_RLatLon0.09_PT041H.grib2 2026-04-25 02:55 637K
20260425T00Z_MSC_RDPS_WindSpeed_IsbL-0750_RLatLon0.09_PT041H.grib2 2026-04-25 02:55 712K
20260425T00Z_MSC_RDPS_WindSpeed_IsbL-0800_RLatLon0.09_PT041H.grib2 2026-04-25 02:55 765K
20260425T00Z_MSC_RDPS_WindSpeed_IsbL-0850_RLatLon0.09_PT041H.grib2 2026-04-25 02:55 825K
20260425T00Z_MSC_RDPS_WindSpeed_IsbL-0875_RLatLon0.09_PT041H.grib2 2026-04-25 02:55 846K
20260425T00Z_MSC_RDPS_WindSpeed_IsbL-0900_RLatLon0.09_PT041H.grib2 2026-04-25 02:55 858K
20260425T00Z_MSC_RDPS_WindSpeed_IsbL-0925_RLatLon0.09_PT041H.grib2 2026-04-25 02:55 864K
20260425T00Z_MSC_RDPS_WindSpeed_IsbL-0950_RLatLon0.09_PT041H.grib2 2026-04-25 02:55 863K
20260425T00Z_MSC_RDPS_WindSpeed_IsbL-0970_RLatLon0.09_PT041H.grib2 2026-04-25 02:55 864K
20260425T00Z_MSC_RDPS_WindSpeed_IsbL-0985_RLatLon0.09_PT041H.grib2 2026-04-25 02:55 864K
20260425T00Z_MSC_RDPS_WindSpeed_IsbL-1000_RLatLon0.09_PT041H.grib2 2026-04-25 02:55 861K
20260425T00Z_MSC_RDPS_WindSpeed_IsbL-1015_RLatLon0.09_PT041H.grib2 2026-04-25 02:55 854K
20260425T00Z_MSC_RDPS_WindU_AGL-10m_RLatLon0.09_PT041H.grib2 2026-04-25 02:55 442K
20260425T00Z_MSC_RDPS_WindU_AGL-120m_RLatLon0.09_PT041H.grib2 2026-04-25 02:55 422K
20260425T00Z_MSC_RDPS_WindU_AGL-40m_RLatLon0.09_PT041H.grib2 2026-04-25 02:55 544K
20260425T00Z_MSC_RDPS_WindU_AGL-80m_RLatLon0.09_PT041H.grib2 2026-04-25 02:55 423K
20260425T00Z_MSC_RDPS_WindU_IsbL-0001_RLatLon0.09_PT041H.grib2 2026-04-25 02:55 269K
20260425T00Z_MSC_RDPS_WindU_IsbL-0005_RLatLon0.09_PT041H.grib2 2026-04-25 02:55 293K
20260425T00Z_MSC_RDPS_WindU_IsbL-0010_RLatLon0.09_PT041H.grib2 2026-04-25 02:55 349K
20260425T00Z_MSC_RDPS_WindU_IsbL-0020_RLatLon0.09_PT041H.grib2 2026-04-25 02:55 367K
20260425T00Z_MSC_RDPS_WindU_IsbL-0030_RLatLon0.09_PT041H.grib2 2026-04-25 02:55 365K
20260425T00Z_MSC_RDPS_WindU_IsbL-0050_RLatLon0.09_PT041H.grib2 2026-04-25 02:55 365K
20260425T00Z_MSC_RDPS_WindU_IsbL-0100_RLatLon0.09_PT041H.grib2 2026-04-25 02:55 430K
20260425T00Z_MSC_RDPS_WindU_IsbL-0150_RLatLon0.09_PT041H.grib2 2026-04-25 02:55 391K
20260425T00Z_MSC_RDPS_WindU_IsbL-0175_RLatLon0.09_PT041H.grib2 2026-04-25 02:55 416K
20260425T00Z_MSC_RDPS_WindU_IsbL-0200_RLatLon0.09_PT041H.grib2 2026-04-25 02:55 433K
20260425T00Z_MSC_RDPS_WindU_IsbL-0225_RLatLon0.09_PT041H.grib2 2026-04-25 02:55 340K
20260425T00Z_MSC_RDPS_WindU_IsbL-0250_RLatLon0.09_PT041H.grib2 2026-04-25 02:55 342K
20260425T00Z_MSC_RDPS_WindU_IsbL-0275_RLatLon0.09_PT041H.grib2 2026-04-25 02:55 357K
20260425T00Z_MSC_RDPS_WindU_IsbL-0300_RLatLon0.09_PT041H.grib2 2026-04-25 02:55 355K
20260425T00Z_MSC_RDPS_WindU_IsbL-0350_RLatLon0.09_PT041H.grib2 2026-04-25 02:55 363K
20260425T00Z_MSC_RDPS_WindU_IsbL-0400_RLatLon0.09_PT041H.grib2 2026-04-25 02:55 466K
20260425T00Z_MSC_RDPS_WindU_IsbL-0450_RLatLon0.09_PT041H.grib2 2026-04-25 02:55 465K
20260425T00Z_MSC_RDPS_WindU_IsbL-0500_RLatLon0.09_PT041H.grib2 2026-04-25 02:55 467K
20260425T00Z_MSC_RDPS_WindU_IsbL-0550_RLatLon0.09_PT041H.grib2 2026-04-25 02:55 469K
20260425T00Z_MSC_RDPS_WindU_IsbL-0600_RLatLon0.09_PT041H.grib2 2026-04-25 02:55 480K
20260425T00Z_MSC_RDPS_WindU_IsbL-0650_RLatLon0.09_PT041H.grib2 2026-04-25 02:55 484K
20260425T00Z_MSC_RDPS_WindU_IsbL-0700_RLatLon0.09_PT041H.grib2 2026-04-25 02:55 505K
20260425T00Z_MSC_RDPS_WindU_IsbL-0750_RLatLon0.09_PT041H.grib2 2026-04-25 02:55 533K
20260425T00Z_MSC_RDPS_WindU_IsbL-0800_RLatLon0.09_PT041H.grib2 2026-04-25 02:55 579K
20260425T00Z_MSC_RDPS_WindU_IsbL-0850_RLatLon0.09_PT041H.grib2 2026-04-25 02:55 631K
20260425T00Z_MSC_RDPS_WindU_IsbL-0875_RLatLon0.09_PT041H.grib2 2026-04-25 02:55 650K
20260425T00Z_MSC_RDPS_WindU_IsbL-0900_RLatLon0.09_PT041H.grib2 2026-04-25 02:55 658K
20260425T00Z_MSC_RDPS_WindU_IsbL-0925_RLatLon0.09_PT041H.grib2 2026-04-25 02:55 661K
20260425T00Z_MSC_RDPS_WindU_IsbL-0950_RLatLon0.09_PT041H.grib2 2026-04-25 02:55 658K
20260425T00Z_MSC_RDPS_WindU_IsbL-0970_RLatLon0.09_PT041H.grib2 2026-04-25 02:55 657K
20260425T00Z_MSC_RDPS_WindU_IsbL-0985_RLatLon0.09_PT041H.grib2 2026-04-25 02:55 799K
20260425T00Z_MSC_RDPS_WindU_IsbL-1000_RLatLon0.09_PT041H.grib2 2026-04-25 02:55 799K
20260425T00Z_MSC_RDPS_WindU_IsbL-1015_RLatLon0.09_PT041H.grib2 2026-04-25 02:55 795K
20260425T00Z_MSC_RDPS_WindV_AGL-10m_RLatLon0.09_PT041H.grib2 2026-04-25 02:55 439K
20260425T00Z_MSC_RDPS_WindV_AGL-120m_RLatLon0.09_PT041H.grib2 2026-04-25 02:55 421K
20260425T00Z_MSC_RDPS_WindV_AGL-40m_RLatLon0.09_PT041H.grib2 2026-04-25 02:55 424K
20260425T00Z_MSC_RDPS_WindV_AGL-80m_RLatLon0.09_PT041H.grib2 2026-04-25 02:55 422K
20260425T00Z_MSC_RDPS_WindV_IsbL-0001_RLatLon0.09_PT041H.grib2 2026-04-25 02:55 268K
20260425T00Z_MSC_RDPS_WindV_IsbL-0005_RLatLon0.09_PT041H.grib2 2026-04-25 02:55 333K
20260425T00Z_MSC_RDPS_WindV_IsbL-0010_RLatLon0.09_PT041H.grib2 2026-04-25 02:55 308K
20260425T00Z_MSC_RDPS_WindV_IsbL-0020_RLatLon0.09_PT041H.grib2 2026-04-25 02:55 330K
20260425T00Z_MSC_RDPS_WindV_IsbL-0030_RLatLon0.09_PT041H.grib2 2026-04-25 02:55 327K
20260425T00Z_MSC_RDPS_WindV_IsbL-0050_RLatLon0.09_PT041H.grib2 2026-04-25 02:55 359K
20260425T00Z_MSC_RDPS_WindV_IsbL-0100_RLatLon0.09_PT041H.grib2 2026-04-25 02:55 329K
20260425T00Z_MSC_RDPS_WindV_IsbL-0150_RLatLon0.09_PT041H.grib2 2026-04-25 02:55 388K
20260425T00Z_MSC_RDPS_WindV_IsbL-0175_RLatLon0.09_PT041H.grib2 2026-04-25 02:55 413K
20260425T00Z_MSC_RDPS_WindV_IsbL-0200_RLatLon0.09_PT041H.grib2 2026-04-25 02:55 431K
20260425T00Z_MSC_RDPS_WindV_IsbL-0225_RLatLon0.09_PT041H.grib2 2026-04-25 02:55 337K
20260425T00Z_MSC_RDPS_WindV_IsbL-0250_RLatLon0.09_PT041H.grib2 2026-04-25 02:55 339K
20260425T00Z_MSC_RDPS_WindV_IsbL-0275_RLatLon0.09_PT041H.grib2 2026-04-25 02:55 378K
20260425T00Z_MSC_RDPS_WindV_IsbL-0300_RLatLon0.09_PT041H.grib2 2026-04-25 02:55 375K
20260425T00Z_MSC_RDPS_WindV_IsbL-0350_RLatLon0.09_PT041H.grib2 2026-04-25 02:55 358K
20260425T00Z_MSC_RDPS_WindV_IsbL-0400_RLatLon0.09_PT041H.grib2 2026-04-25 02:55 358K
20260425T00Z_MSC_RDPS_WindV_IsbL-0450_RLatLon0.09_PT041H.grib2 2026-04-25 02:55 357K
20260425T00Z_MSC_RDPS_WindV_IsbL-0500_RLatLon0.09_PT041H.grib2 2026-04-25 02:55 460K
20260425T00Z_MSC_RDPS_WindV_IsbL-0550_RLatLon0.09_PT041H.grib2 2026-04-25 02:55 464K
20260425T00Z_MSC_RDPS_WindV_IsbL-0600_RLatLon0.09_PT041H.grib2 2026-04-25 02:55 474K
20260425T00Z_MSC_RDPS_WindV_IsbL-0650_RLatLon0.09_PT041H.grib2 2026-04-25 02:55 494K
20260425T00Z_MSC_RDPS_WindV_IsbL-0700_RLatLon0.09_PT041H.grib2 2026-04-25 02:55 514K
20260425T00Z_MSC_RDPS_WindV_IsbL-0750_RLatLon0.09_PT041H.grib2 2026-04-25 02:55 541K
20260425T00Z_MSC_RDPS_WindV_IsbL-0800_RLatLon0.09_PT041H.grib2 2026-04-25 02:55 584K
20260425T00Z_MSC_RDPS_WindV_IsbL-0850_RLatLon0.09_PT041H.grib2 2026-04-25 02:55 634K
20260425T00Z_MSC_RDPS_WindV_IsbL-0875_RLatLon0.09_PT041H.grib2 2026-04-25 02:55 653K
20260425T00Z_MSC_RDPS_WindV_IsbL-0900_RLatLon0.09_PT041H.grib2 2026-04-25 02:55 661K
20260425T00Z_MSC_RDPS_WindV_IsbL-0925_RLatLon0.09_PT041H.grib2 2026-04-25 02:55 665K
20260425T00Z_MSC_RDPS_WindV_IsbL-0950_RLatLon0.09_PT041H.grib2 2026-04-25 02:55 661K
20260425T00Z_MSC_RDPS_WindV_IsbL-0970_RLatLon0.09_PT041H.grib2 2026-04-25 02:55 656K
20260425T00Z_MSC_RDPS_WindV_IsbL-0985_RLatLon0.09_PT041H.grib2 2026-04-25 02:55 657K
20260425T00Z_MSC_RDPS_WindV_IsbL-1000_RLatLon0.09_PT041H.grib2 2026-04-25 02:55 657K
20260425T00Z_MSC_RDPS_WindV_IsbL-1015_RLatLon0.09_PT041H.grib2 2026-04-25 02:55 792K